Other Public Products
Issued by NWS Grand Forks, ND

Home | Current Version | Previous Version | Graphics & Text | Print | Product List | Glossary On
Versions: 1 2 3 4 5 6 7 8 9 10 11 12 13 14 15 16 17 18 19 20 21 22 23 24 25 26 27 28 29 30 31 32 33 34 35 36 37 38 39 40 41 42 43 44 45 46 47 48 49 50
650
FPUS83 KFGF 282231
OPUFGF
PRAIRIE TO PINES WEATHER ROUNDUP
NATIONAL WEATHER SERVICE EASTERN NORTH DAKOTA/GRAND FORKS ND
500 PM CDT SAT MAY 28 2016

 **SATELLITE DATA USED TO AUGMENT SKY COVER AT AUTOMATED STATIONS**
 *****  WEATHER ACROSS EASTERN NORTH DAKOTA  *****

CITY           SKY/WX    TMP DP  RH WIND       PRES   REMARKS
GRAND FORKS    LGT RAIN  67  58  72 E8        29.81S
GRAND FORKS AF CLOUDY    68  56  64 VRB7      29.82S
GRAND CITY NWS   N/A     64 N/A N/A NE3         N/A
BUXTON           N/A     67  62  85 NE7         N/A
DEVILS LAKE    MOSUNNY   67  56  67 N6        29.86S
FARGO          CLOUDY    66  57  72 NE13      29.81S
WAHPETON ARPT  CLOUDY    68  54  60 N9        29.80S
$$

 *****  WEATHER ACROSS CENTRAL AND WESTERN NORTH DAKOTA  *****

CITY           SKY/WX    TMP DP  RH WIND       PRES   REMARKS
JAMESTOWN      CLOUDY    71  54  54 N6        29.83S
BISMARCK       MOSUNNY   70  54  56 VRB5      29.85F
MINOT          PTSUNNY   71  52  50 VRB3      29.87F
MINOT AFB      PTSUNNY   65  53  64 VRB2      29.87F
GARRISON         N/A     68  52  56 VRB7      29.87S
WILLISTON      CLOUDY    62  56  80 W6        29.89R
DICKINSON      CLOUDY    63  51  65 CALM      29.88S
HETTINGER      CLOUDY    64  55  72 VRB5      29.92F
$$

 *****  OTHER OBSERVATIONS NORTHEAST NORTH DAKOTA  *****

CITY           SKY/WX    TMP DP  RH WIND       PRES   REMARKS
WALHALLA       FAIR      63  63 100 N12       29.86F
LANGDON        MOCLDY    64  61  88 NE15      29.87S
CAVALIER       MOCLDY    68  63  83 N15       29.84S
GRAFTON        MOCLDY    64  63  94 N9        29.84S
CANDO          FAIR      66  57  72 N12       29.89S
FORT TOTTEN    NOT AVBL
ROLLA          CLOUDY    59  59 100 NE9       29.91S
RUGBY          FAIR      66  54  63 NE5       29.87R
 ***** THE ABOVE OBSERVATIONS ARE NON NWS ARE NOT QUALITY
        CONTROLLED AND MAY MIS-REPORT RAIN FOR SNOW...
$$

 *****  OTHER OBSERVATIONS SOUTHEAST NORTH DAKOTA *****

CITY           SKY/WX    TMP DP  RH WIND       PRES   REMARKS
COOPERSTOWN    NOT AVBL
VALLEY CITY    FAIR      70  57  64 NE7       29.84F
OAKES            N/A    N/A N/A N/A MISG        N/A
GWINNER        MOCLDY    63  61  94 NW9       29.83R
SHEYENNE NWR     N/A     65  59  80 NE6       29.95S
BUFFALO          N/A     67  54  62 NE13        N/A
WYNDMERE         N/A     68  59  73 N5          N/A
 ***** THE ABOVE OBSERVATIONS ARE NON NWS ARE NOT QUALITY
       CONTROLLED AND MAY MIS-REPORT RAIN FOR SNOW...
$$

  *****  WEATHER ACROSS NORTHERN MINNESOTA  *****

CITY           SKY/WX    TMP DP  RH WIND       PRES   REMARKS
FLAG ISLAND    CLOUDY    59  55  88 NE13      29.85R
WARROAD        DRIZZLE   59  55  88 NE9G17    29.85S
ROSEAU         LGT RAIN  61  55  82 NE14      29.84S
HALLOCK        PTSUNNY   66  59  77 N13G20    29.82S
THF RVR FALLS  CLOUDY    61  57  88 N12       29.84S
HALSTAD        NOT AVBL
FOSSTON        DRIZZLE   57  57 100 N5        29.82S
BAUDETTE       LGT RAIN  58  56  93 N10       29.82S
WASKISH        CLOUDY    61  57  88 NE7       29.81S
CROOKSTON      DRIZZLE   63  61  94 NE12      29.83S
$$
  *****  WEATHER ACROSS CENTRAL AND WEST MINNESOTA  *****

CITY           SKY/WX    TMP DP  RH WIND       PRES   REMARKS
BEMIDJI        CLOUDY    59  57  94 N3        29.80S
PARK RAPIDS    CLOUDY    61  57  87 CALM      29.80S
WADENA         RAIN      61  55  82 CALM      29.80S
DETROIT LAKES  DRIZZLE   59  57  94 NE6       29.82F
MOORHEAD       CLOUDY    64  59  82 NE9       29.82S
FERGUS FALLS   LGT RAIN  64  55  72 CALM      29.77S
ELBOW LAKE     RAIN      62  58  85 CALM      29.81S
MORRIS MN      DRIZZLE   64  61  88 N6        29.80R
STAPLES        LGT RAIN  59  57  94 W3        29.79F
WHEATON        DRIZZLE   66  59  77 N5        29.82S
$$
  *****  WEATHER ELSEWHERE ACROSS MINNESOTA  *****

CITY           SKY/WX    TMP DP  RH WIND       PRES   REMARKS
DULUTH         CLOUDY    57  53  86 E6        29.79R
INTRNTL FALLS  CLOUDY    60  58  92 NE6       29.81R FOG
ELY            CLOUDY    63  61  94 NE3       29.80S
CLOQUET        DRIZZLE   63  55  77 CALM      29.79S
BRAINERD       CLOUDY    60  58  92 NW3       29.80S
HIBBING        CLOUDY    60  57  89 CALM      29.79R
ALEXANDRIA     CLOUDY    61  57  87 NW6       29.81S
SAINT CLOUD    CLOUDY    63  59  87 N6        29.77F
MINNEAPOLIS    PTSUNNY   65  60  84 N7        29.77S
$$

  *****  WEATHER ACROSS SOUTH DAKOTA  *****

CITY           SKY/WX    TMP DP  RH WIND       PRES   REMARKS
SIOUX FALLS    RAIN      64  61  90 N5        29.79R FOG
BROOKINGS      PTSUNNY   64  57  77 N12       29.81S
WATERTOWN      CLOUDY    65  58  78 N7        29.82S
HURON          CLOUDY    66  60  81 MISG      29.84R
SISSETON         N/A     69  54  58 N7        29.79S
ABERDEEN       PTSUNNY   68  59  73 NE8       29.84R
MITCHELL       RAIN      61  59  93 NW12      29.86R FOG
PIERRE         PTSUNNY   74  54  49 NE8       29.84S
MOBRIDGE       PTSUNNY   75  49  39 N5        29.83R
RAPID CITY     CLOUDY    63  52  67 W7        29.94S
$$

  *****  SOME WEATHER IN NEARBY STATES *****

CITY           SKY/WX    TMP DP  RH WIND       PRES   REMARKS
GLASGOW MT     PTSUNNY   66  43  43 W14       29.90S
GREAT FALLS MT CLOUDY    60  28  29 W16       29.99R
CHEYENNE WY    CLOUDY    70  34  26 W16G23    30.04R
SCOTTSBLUFF NE PTSUNNY   74  40  29 SW9       29.92S
OMAHA NE       MOSUNNY   72  56  57 W17       29.81R
DES MOINES IA  MOSUNNY   73  61  65 SW16      29.79S
DAVENPORT IA     N/A     73  65  75 SW12      29.82F
CHICAGO IL     MOSUNNY   80  66  62 S15G26    29.88F
EAU CLAIRE WI  CLOUDY    77  63  61 SW9       29.74F
LA CROSSE WI   CLOUDY    76  61  59 S14       29.77R
$$

  *****  SOME NATIONAL WEATHER *****

CITY           SKY/WX    TMP DP  RH WIND       PRES   REMARKS
LA GUARDIA NY  MOSUNNY   86  64  48 S10       30.06S
RALEIGH NC     MOSUNNY   86  59  39 E9        30.12S
ATLANTA GA     MOSUNNY   86  54  33 E7        30.09S
NEW ORLEANS LA CLOUDY    81  69  67 E12       30.00F
OKLAHOMA CITY  MOSUNNY   82  63  52 S8        29.95S
ALBUQUERQUE NM MOSUNNY   78  22  12 CALM      30.05F
SALT LAKE CITY MOSUNNY   74  40  29 N15       30.01S
LOS ANGELES CA PTSUNNY   66  56  70 W16       29.88F
BOISE ID       SUNNY     67  29  24 NW8       30.04F
SEATTLE WA     CLOUDY    60  48  64 SW12      30.06R
$$

*** WEATHER ACROSS MANITOBA...SASKATCHEWAN AND ONTARIO ***
                ***ONTARIO***

CITY           SKY/WX    TMP DP  RH WIND       PRES   REMARKS
GERALDTON      LGT RAIN  57  57 100 E12G22    29.90S VSB 1
THUNDER BAY    CLOUDY    59  57  94 E7        29.81R FOG
SIOUX LOOKOUT  DRIZZLE   55  52  88 NE7G18    29.89F
TORONTO        PTSUNNY   82  64  54 S8        30.02S
BIG TROUT LK   CLOUDY    52  43  71 E10       30.14S
PICKLE LAKE    CLOUDY    50  46  87 E14G22    30.02S
DRYDEN         LGT RAIN  54  52  94 NE14G24   29.87S
KENORA         DRIZZLE   55  54  94 N9        29.89R FOG
$$
                *** MANITOBA***

CITY           SKY/WX    TMP DP  RH WIND       PRES   REMARKS
BRANDON        CLOUDY    55  52  88 E12       29.93S
DAUPHIN        CLOUDY    54  48  82 NE8       29.97S
ISLAND LAKE    LGT RAIN  48  43  81 E8        30.10S
PILOT MOUND      N/A     59  55  88 NE12        N/A
THE PAS        CLOUDY    54  41  62 NE8       30.04F
THOMPSON       PTSUNNY   48  37  66 E3        30.13F
WINNIPEG       PTSUNNY   66  59  77 NE15G22   29.88S
LYNN LAKE      CLOUDY    48  37  66 E9        30.11F
CHURCHILL      MOSUNNY   46  36  66 SE16G22   30.28S
GILLAM         MOSUNNY   50  37  62 E5        30.19F
$$
                ***SASKATCHEWAN***

CITY           SKY/WX    TMP DP  RH WIND       PRES   REMARKS
ESTEVAN        CLOUDY    59  52  77 E10       29.90S
KINDERSLEY     CLOUDY    54  45  71 CALM      29.88R
LLOYDMINSTER   LGT RAIN  52  48  87 W7        29.87S
PRINCE ALBERT  PTSUNNY   61  48  63 E15G22    29.93S
REGINA         CLOUDY    61  50  67 SE12      29.89S
YORKTON        CLOUDY    57  48  72 S5        29.94S   C1F1C2F2C3F3C4F4C5F5C6F6C7F7C8F8C9F9CaFaCbFbCcFcCdFdCe!



USA.gov is the U.S. government's official web portal to all federal, state and local government web resources and services.